Flag for Taiwan Weather past 2 weeks in Kaohsiung, Taiwan

Now
84 °F

Partly cloudy.


Feels Like: 98 °F
Forecast: 80 / 90 °F
Wind: 5 mph from Northwest

Location: Kaohsiung International Airport

Current Time: Sep 19, 2014 at 10:42:08 PM

Latest Report: Sep 19, 2014 at 10:00 PM


Visibility: 4 mi

Pressure: 29.62 "Hg

Humidity: 89%

Dew point: 81 °F

Location of KaohsiungLocation

Historic Weather in Kaohsiung — Graph

°F

Kaohsiung temperature yesterday

Maximum temperature yesterday: 91 °F (at 1:30 PM)
Minimum temperature yesterday: 82 °F (at 2:00 AM)
Average temperature yesterday: 86 °F

Past Weeks' High & Low Weather Summary

 TemperatureHumidityPressure
High99 °F (Sep 15, 12:30 PM)100% (Sep 12, 6:00 AM)29.95 "Hg (Sep 12, 6:00 AM)
Low77 °F (Sep 5, 5:00 AM)42% (Sep 15, 12:00 PM)29.56 "Hg (Sep 15, 4:00 AM)
Average86 °F79%29.76 "Hg
* Reported Sep 4 9:00 PM — Sep 19 9:30 PM, Kaohsiung, Weather by CustomWeather, © 2014

Note: Actual official high and low records may vary slightly from our data, if they occured in-between our weather recording intervals... More about our weather records

Advertising

Kaohsiung weather history for previous 24 hours

 ConditionsComfort  
Time TempWeatherWind HumidityBarometerVisibility
9:30 PM
Sep 19
84 °FPartly cloudy.5 mph84%29.62 "Hg4 mi
9:00 PM84 °FPassing clouds.7 mph84%29.62 "Hg4 mi
8:30 PM84 °FPassing clouds.3 mph84%29.62 "Hg4 mi
7:30 PM84 °FScattered showers. Passing clouds.3 mph89%29.62 "Hg4 mi
7:00 PM84 °FScattered showers. Partly cloudy.5 mph89%29.62 "Hg4 mi
6:30 PM84 °FSprinkles. Partly cloudy.7 mph84%29.62 "Hg3 mi
6:00 PM84 °FSprinkles. Partly cloudy.7 mph84%29.62 "Hg4 mi
5:30 PM86 °FSprinkles. Partly sunny.8 mph79%29.59 "Hg6 mi
5:00 PM88 °FPartly sunny.9 mph70%29.59 "Hg6 mi
4:30 PM88 °FThundershowers. Broken clouds.10 mph75%29.59 "Hg6 mi
4:00 PM88 °FBroken clouds.10 mph75%29.59 "HgN/A
3:30 PM88 °FPartly sunny.12 mph75%29.59 "HgN/A
3:00 PM88 °FPartly sunny.12 mph75%29.59 "HgN/A
2:30 PM90 °FPartly sunny.12 mph71%29.59 "Hg6 mi
2:04 PM90 °FBroken clouds.12 mph75%29.59 "Hg6 mi
1:30 PM88 °FScattered showers. Broken clouds.12 mph75%29.62 "Hg6 mi
1:00 PM90 °FBroken clouds.9 mph75%29.62 "HgN/A
12:30 PM90 °FBroken clouds.8 mph71%29.65 "HgN/A
12:00 PM88 °FPartly sunny.5 mph75%29.65 "HgN/A
11:30 AM88 °FPartly sunny.2 mph75%29.68 "Hg5 mi
11:00 AM86 °FPartly sunny.5 mph79%29.68 "Hg5 mi
10:30 AM86 °FPartly sunny.3 mph79%29.68 "Hg5 mi
10:00 AM86 °FPartly sunny.5 mph79%29.68 "HgN/A
9:30 AM86 °FBroken clouds.5 mph79%29.71 "HgN/A
9:00 AM86 °FPartly sunny.5 mph79%29.71 "Hg6 mi
8:30 AM86 °FBroken clouds.5 mph79%29.71 "Hg4 mi
7:30 AM84 °FFog.2 mph84%29.71 "Hg3 mi
7:00 AM82 °FFog.5 mph89%29.68 "Hg2 mi
6:30 AM82 °FFog.7 mph89%29.71 "Hg2 mi
6:00 AM81 °FFog.6 mph94%29.68 "Hg2 mi
5:54 AM82 °FFog.5 mph89%29.71 "Hg2 mi
5:00 AM82 °FPassing clouds.3 mph89%29.71 "Hg4 mi
4:00 AM82 °FPassing clouds.5 mph89%29.71 "Hg4 mi
3:00 AM84 °FPassing clouds.2 mph84%29.71 "Hg5 mi
2:00 AM84 °FPassing clouds.6 mph84%29.74 "Hg5 mi
1:00 AM84 °FPassing clouds.3 mph84%29.77 "Hg5 mi
12:00 AM84 °FPassing clouds.5 mph89%29.80 "Hg5 mi
11:30 PM
Sep 18
84 °FPassing clouds.5 mph89%29.80 "Hg5 mi
11:00 PM84 °FPassing clouds.6 mph84%29.80 "Hg6 mi
10:30 PM84 °FPassing clouds.6 mph89%29.80 "Hg5 mi
10:00 PM84 °FPassing clouds.6 mph89%29.80 "Hg5 mi
Weather by CustomWeather, © 2014

See weather overviewHow to use our weather pages